星链-11382 (STARLINK-11382)

导读

STARLINK-11382是美国SpaceX星链卫星互联网项目中的一员,于2025年2月4日发射升空。它主要用于为全球范围内尤其是偏远地区提供高速互联网接入服务,依托近地轨道卫星星座布局,助力实现全球网络覆盖,推动太空互联网基础设施建设,进一步拓展星链系统的服务能力与覆盖规模。

Basic Information
目录编号:
62881
目录名称:
STARLINK-11382
国际标识:
2025-024C
轨道中心:
EARTH
卫星名称:
星链-11382
卫星全名:
星链-11382 (STARLINK-11382)
卫星状态:
在轨 (已飞行578 天)
发射日期:
2025-02-04 UTC
国别 :
美国 (US)
星等 :
--
Orbit Information
数据来源 国际轨道数据
星历时间: 2026-09-05T12:06:28+0800
5小时前
查看轨道信息
半长轴: 6734.646km
偏心率: 0.0001601
轨道倾角: 43.000°
近地点辐角 272.120°
升交点赤经 179.668°
平近点角 87.949°
近地点: 355.43km
远地点: 357.588km
周期: 91.671分钟
每日圈数: 15.708354
Detailed Information
固有亮度:
5
最大亮度:
2.5
卫星平台:
Starlink V1.0
覆盖范围:
全球
运营商:
太空探索技术公司
运营商所在国:
美国
制造商(研发单位):
太空探索技术公司
制造商所在国:
美国
使用方式:
暂无
Satellite Introduction
Starlink 计划是 SpaceX 推出的全球卫星互联网项目,通过发射低轨道卫星,为全球尤其是偏远地区提供高速、低延迟的互联网服务。自 2019 年起,Starlink 已部署数千颗卫星,旨在缩小全球数字鸿沟,推动互联网普及。该项目还为军事、航空等行业提供通信支持,带来广泛经济效益。
2D Orbit Map
3D Orbit Map
Orbit Altitude Analysis Chart
Orbit Inclination Analysis Chart
Orbit Comprehensive Analysis Chart
View Comprehensive Chart
Conjunction Data List
Event ID Objects TCA Miss Dist (km) Collision Risk Probability Collision Risk Index (CRI) Action
CDM_260907-134806-288106-314121
2026-09-07T
13:48:37+0000
1.877 km
极远距离
1.903068E-6 低风险 0.41